Location: Coffee Ditch
(40.9640°N, 122.7500°W)
Time: 14:27:42
(UTC+00:00)

DELTA 2 R/B (1) - Pass Details

Date: 08 September 2024
Orbit: 788 x 800 km, 39.6° (Epoch: 08 October)

Event Time Altitude Azimuth Distance (km) Brightness Sun altitude
Exits shadow 13:11:22 - 260° (W) 2,476 5.4 -7.1°
Reaches altitude 10° 13:11:42 10° 259° (W) 2,354 5.3 -7.1°
Maximum altitude 13:17:14 77° 175° (S) 813 3.7 -6.0°
Drops below altitude 10° 13:22:46 10° 90° (E) 2,348 7.7 -5.0°
Sets 13:25:15 0° 89° (E) 3,275 9.0 -4.6°
